Location: Lecco
(45.8566°N, 9.3977°E)
Time: 07:03:41
(UTC+02:00)

A-11 Canister half - Pass Details

Date: 17 August 2020
Orbit: 1514 x 1686 km, 47.2° (Epoch: 21 September)

Event Time Altitude Azimuth Distance (km) Brightness Sun altitude
Rises 22:19:54 0° 290° (WNW) 4,801 12.9 -17.7°
Reaches altitude 10° 22:22:58 10° 288° (WNW) 3,837 12.1 -18.1°
Maximum altitude 22:32:43 70° 208° (SSW) 1,743 9.1 -19.3°
Enters shadow 22:38:38 28° 133° (SE) 2,739 9.7 -20.0°
